Home > Weather > Langkawi > Past weeks

Flag for Malaysia Past Weather in Langkawi, Malaysia — Yesterday and Last 2 Weeks

Now
91 °F

Partly sunny.


Feels Like: 105 °F
Forecast: 78 / 90 °F
Wind: 8 mph from South

Location: Langkawi

Current Time: Jul 2, 2016 at 5:41:43 PM

Latest Report: Jul 2, 2016 at 5:00 PM


Visibility: N/A

Pressure: 29.77 "Hg

Humidity: 63%

Dew Point: 77 °F

Location of LangkawiLocation

Past Weather in Langkawi — Graph

°F

Langkawi Temperature Yesterday

Maximum temperature yesterday: 90 °F (at 1:00 PM)
Minimum temperature yesterday: 77 °F (at 3:00 AM)
Average temperature yesterday: 84 °F

High & Low Weather Summary for the Past Weeks

 TemperatureHumidityPressure
High93 °F (Jun 25, 3:00 PM)94% (Jun 17, 7:00 PM)29.89 "Hg (Jun 17, 7:00 PM)
Low73 °F (Jun 18, 1:00 AM)56% (Jun 25, 4:00 PM)29.68 "Hg (Jun 27, 5:00 PM)
Average83 °F81%29.79 "Hg
* Reported Jun 17 4:00 PM — Jul 2 4:00 PM, Langkawi, Weather by CustomWeather, © 2016

Note: Actual official high and low records may vary slightly from our data, if they occured in-between our weather recording intervals... More about our weather records

Advertising

Langkawi Weather History for the Previous 24 Hours

Scroll right to see more
 ConditionsComfort  
Time TempWeatherWind HumidityBarometerVisibility
4:00 PM
Sat, Jul 2
91 °FPartly sunny.9 mph67%29.77 "HgN/A
3:00 PM91 °FPartly sunny.8 mph67%29.80 "HgN/A
2:00 PM91 °FPartly sunny.7 mph67%29.80 "HgN/A
1:00 PM91 °FPartly sunny.8 mph67%29.83 "HgN/A
12:00 PM90 °FPartly sunny.5 mph75%29.86 "HgN/A
11:00 AM90 °FPartly sunny.6 mph71%29.86 "HgN/A
10:00 AM88 °FBroken clouds.1 mph75%29.86 "Hg5 mi
9:00 AM84 °FBroken clouds.No wind84%29.86 "Hg5 mi
8:00 AM82 °FBroken clouds.1 mph84%29.83 "Hg6 mi
7:00 AM81 °FPartly cloudy.1 mph89%29.80 "HgN/A
6:00 AM81 °FPassing clouds.1 mph89%29.80 "HgN/A
5:00 AM81 °FPassing clouds.No wind89%29.80 "HgN/A
4:00 AM81 °FPassing clouds.1 mph84%29.80 "HgN/A
3:00 AM81 °FPassing clouds.1 mph84%29.80 "HgN/A
2:00 AM81 °FPassing clouds.1 mph84%29.80 "HgN/A
1:00 AM81 °FPassing clouds.No wind84%29.80 "HgN/A
12:00 AM82 °FPassing clouds.2 mph79%29.83 "HgN/A
11:00 PM
Fri, Jul 1
82 °FPassing clouds.2 mph84%29.80 "HgN/A
10:00 PM82 °FPassing clouds.No wind89%29.80 "HgN/A
9:00 PM84 °FPassing clouds.No wind84%29.77 "HgN/A
8:00 PM86 °FPassing clouds.No wind79%29.74 "HgN/A
7:00 PM88 °FPartly sunny.2 mph75%29.74 "HgN/A
6:00 PM88 °FPartly sunny.5 mph75%29.74 "HgN/A
5:00 PM88 °FPartly sunny.7 mph75%29.74 "HgN/A
Weather by CustomWeather, © 2016

See weather overviewHow to use our weather pages